Tracking 31027 objects as of 19-Jul-2025
HD Live streaming from Space Station
objects crossing your sky now

STARLINK-3583

Track STARLINK-3583 now!
10-day predictions
STARLINK-3583 is classified as:


NORAD ID: 51876
Int'l Code: 2022-022AA
Perigee: 546.1 km
Apogee: 547.8 km
Inclination: 53.2 °
Period: 95.4 minutes
Semi major axis: 6917 km
RCS: Unknown
Launch date: March 3, 2022
Source: United States (US)
Launch site: AIR FORCE EASTERN TEST RANGE (AFETR)
Your satellite tracking list
SPACEBEE-134
Track 1 satellite(s)




NASA's NSSDC Master Catalog

Two Line Element Set (TLE):
1 51876U 22022AA  25199.64712965  .00002772  00000-0  19231-3 0  9998
2 51876  53.2181 339.7791 0001266  94.8481 265.2656 15.08820635187788
Source of the keplerian elements: AFSPC